Location: Batang Balui
(2.7000°N, 113.7833°E)
Time: 22:57:11
(UTC+00:00)

CZ-4 R/B - Pass Details

Date: 03 December 2021
Orbit: 531 x 594 km, 97.7° (Epoch: 27 January)

Event Time Altitude Azimuth Distance (km) Brightness Sun altitude
Rises 11:14:35 0° 154° (SSE) 2,828 4.9 -14.9°
Reaches altitude 10° 11:16:53 10° 145° (SE) 1,925 4.0 -15.4°
Maximum altitude 11:20:44 36° 78° (ENE) 947 2.0 -16.3°
Enters shadow 11:22:16 27° 36° (NE) 1,157 2.5 -16.6°
